Hallock, MN

3:30 AM CST on November 18, 2017 (GMT -0600)
Hallock Municipal

Weather History for KHCO - January, 2013

Change the Weather History Date:

Sunday, January 20, 2013

  Actual Average Record
Temperature  
Mean Temperature -10 °F -  
Max Temperature -5 °F 12 °F 43 °F (1942)
Min Temperature -16 °F -8 °F -37 °F (1943)
Degree Days  
Heating Degree Days 76    
Moisture  
Dew Point -16 °F    
Average Humidity 74    
Maximum Humidity 84    
Minimum Humidity 64    
Precipitation  
Precipitation 0.00 in - - ()
Sea Level Pressure  
Sea Level Pressure 30.32 in    
Wind  
Wind Speed 0 mph (North)    
Max Wind Speed 0 mph    
Max Gust Speed -    
Visibility 8 miles    
Events Snow    
Averages and records for this station are not official NWS values.
T = Trace of Precipitation, MM = Missing Value Source: NWS Daily Summary

Daily Weather History Graph

Daily Weather History Graph

Search for Another Location

Airport or City:

Trip Planner

Search our weather history database for the weather conditions in past years. The results will help you decide how hot, cold, wet, or windy it might be!

Date:

Astronomy

Jan. 20, 2013 Rise Set
Actual Time 8:11 AM CST 5:07 PM CST
Civil Twilight 7:35 AM CST 5:42 PM CST
Nautical Twilight 6:57 AM CST 6:21 PM CST
Astronomical Twilight 6:19 AM CST 6:58 PM CST
Moon 12:10 PM CST (1/20) 2:41 AM CST (1/20)
Length of Visible Light 10h 06m
Length of Day
8h 56m
Waxing Gibbous, 66% of the Moon is Illuminated
Jan 20
Waxing Gibbous
Jan 26
Full
Feb 3
Last Quarter
Feb 10
New
Feb 17
First Quarter

Hourly Weather History & Observations

Time (CST) Temp. Dew Point Humidity Pressure Visibility Wind Dir Wind Speed Gust Speed Precip Events Conditions
12:14 AM -11.2 °F -16.6 °F 77% 30.31 in 10.0 mi Calm Calm - N/A   Clear
12:34 AM -11.2 °F -18.4 °F 70% 30.32 in 10.0 mi Calm Calm - N/A   Clear
12:54 AM -11.2 °F -18.4 °F 70% 30.32 in 10.0 mi Calm Calm - N/A   Clear
1:14 AM -13.0 °F -18.4 °F 77% 30.32 in 10.0 mi Calm Calm - N/A   Clear
1:34 AM -13.0 °F -18.4 °F 77% 30.33 in 10.0 mi Calm Calm - N/A   Scattered Clouds
1:54 AM -11.2 °F -16.6 °F 77% 30.32 in 10.0 mi Calm Calm - N/A   Scattered Clouds
2:14 AM -11.2 °F -16.6 °F 77% 30.33 in 10.0 mi Calm Calm - N/A   Mostly Cloudy
2:34 AM -9.4 °F -16.6 °F 71% 30.33 in 10.0 mi Calm Calm - N/A   Overcast
2:54 AM -9.4 °F -14.8 °F 77% 30.33 in 10.0 mi Calm Calm - N/A   Overcast
3:14 AM -9.4 °F -14.8 °F 77% 30.33 in 10.0 mi Calm Calm - N/A   Overcast
3:34 AM -9.4 °F -14.8 °F 77% 30.32 in 10.0 mi Calm Calm - N/A   Mostly Cloudy
3:53 AM -9.4 °F -16.6 °F 71% 30.32 in 10.0 mi Calm Calm - N/A   Mostly Cloudy
4:14 AM -9.4 °F -16.6 °F 71% 30.32 in 10.0 mi Calm Calm - N/A   Scattered Clouds
4:34 AM -11.2 °F -16.6 °F 77% 30.31 in 10.0 mi Calm Calm - N/A   Clear
4:54 AM -11.2 °F -16.6 °F 77% 30.31 in 10.0 mi Calm Calm - N/A   Clear
5:14 AM -11.2 °F -16.6 °F 77% 30.29 in 10.0 mi Calm Calm - N/A   Mostly Cloudy
5:34 AM -9.4 °F -14.8 °F 77% 30.30 in 10.0 mi Calm Calm - N/A   Overcast
5:54 AM -9.4 °F -14.8 °F 77% 30.31 in 7.0 mi Calm Calm - N/A   Overcast
6:14 AM -9.4 °F -14.8 °F 77% 30.30 in 5.0 mi Calm Calm - N/A   Haze
6:34 AM -7.6 °F -14.8 °F 71% 30.29 in 5.0 mi Calm Calm - N/A Snow Light Snow
6:54 AM -7.6 °F -14.8 °F 71% 30.30 in 7.0 mi Calm Calm - N/A   Mostly Cloudy
7:14 AM -7.6 °F -13.0 °F 77% 30.30 in 10.0 mi Calm Calm - N/A   Overcast
7:34 AM -7.6 °F -11.2 °F 84% 30.29 in 10.0 mi Calm Calm - N/A   Overcast
7:54 AM -5.8 °F -11.2 °F 77% 30.30 in 7.0 mi Calm Calm - N/A Snow Light Snow
8:14 AM -5.8 °F -11.2 °F 77% 30.30 in 5.0 mi Calm Calm - N/A   Haze
8:34 AM -7.6 °F -11.2 °F 84% 30.30 in 3.0 mi Calm Calm - N/A Snow Light Snow
8:54 AM -7.6 °F -11.2 °F 84% 30.31 in 5.0 mi Calm Calm - N/A   Mostly Cloudy
9:14 AM -5.8 °F -11.2 °F 77% 30.31 in 5.0 mi Calm Calm - N/A   Haze
9:34 AM -5.8 °F -11.2 °F 77% 30.32 in 5.0 mi Calm Calm - N/A   Haze
9:54 AM -5.8 °F -11.2 °F 77% 30.32 in 5.0 mi Calm Calm - N/A   Haze
10:14 AM -5.8 °F -11.2 °F 77% 30.33 in 3.0 mi Calm Calm - N/A   Haze
10:34 AM -5.8 °F -11.2 °F 77% 30.34 in 2.5 mi Calm Calm - N/A   Haze
10:54 AM -7.6 °F -11.2 °F 84% 30.34 in 4.0 mi Calm Calm - N/A   Haze
11:14 AM -7.6 °F -13.0 °F 77% 30.35 in 3.0 mi Calm Calm - N/A   Haze
11:34 AM -7.6 °F -13.0 °F 77% 30.36 in 5.0 mi Calm Calm - N/A   Haze
11:54 AM -7.6 °F -11.2 °F 84% 30.36 in 5.0 mi Calm Calm - N/A   Haze
12:14 PM -5.8 °F -11.2 °F 77% 30.37 in 7.0 mi Calm Calm - N/A   Scattered Clouds
12:34 PM -5.8 °F -11.2 °F 77% 30.36 in 2.0 mi Calm Calm - N/A   Haze
12:54 PM -5.8 °F -11.2 °F 77% 30.37 in 2.0 mi Calm Calm - N/A   Haze
1:14 PM -5.8 °F -11.2 °F 77% 30.35 in 2.0 mi Calm Calm - N/A   Haze
1:34 PM -5.8 °F -11.2 °F 77% 30.35 in 3.0 mi Calm Calm - N/A   Haze
1:54 PM -5.8 °F -13.0 °F 71% 30.34 in 7.0 mi Calm Calm - N/A   Clear
2:14 PM -5.8 °F -11.2 °F 77% 30.33 in 10.0 mi Calm Calm - N/A   Scattered Clouds
2:34 PM -5.8 °F -11.2 °F 77% 30.33 in 5.0 mi Calm Calm - N/A   Haze
2:54 PM -5.8 °F -11.2 °F 77% 30.34 in 5.0 mi Calm Calm - N/A   Haze
3:13 PM -5.8 °F -14.8 °F 65% 30.34 in 7.0 mi Calm Calm - N/A   Scattered Clouds
3:34 PM -5.8 °F -14.8 °F 65% 30.34 in 10.0 mi Calm Calm - N/A   Scattered Clouds
3:54 PM -5.8 °F -14.8 °F 65% 30.34 in 10.0 mi Calm Calm - N/A   Scattered Clouds
4:13 PM -7.6 °F -13.0 °F 77% 30.34 in 5.0 mi Calm Calm - N/A   Haze
4:34 PM -7.6 °F -13.0 °F 77% 30.33 in 5.0 mi Calm Calm - N/A   Haze
4:54 PM -7.6 °F -14.8 °F 71% 30.32 in 4.0 mi Calm Calm - N/A   Haze
5:14 PM -7.6 °F -14.8 °F 71% 30.33 in 7.0 mi Calm Calm - N/A   Mostly Cloudy
5:34 PM -9.4 °F -16.6 °F 71% 30.32 in 10.0 mi Calm Calm - N/A   Scattered Clouds
5:54 PM -9.4 °F -16.6 °F 71% 30.32 in 10.0 mi Calm Calm - N/A   Scattered Clouds
6:14 PM -11.2 °F -18.4 °F 70% 30.32 in 7.0 mi Calm Calm - N/A   Mostly Cloudy
6:34 PM -11.2 °F -18.4 °F 70% 30.32 in 10.0 mi Calm Calm - N/A   Scattered Clouds
6:54 PM -11.2 °F -20.2 °F 64% 30.32 in 10.0 mi Calm Calm - N/A   Clear
7:14 PM -13.0 °F -20.2 °F 70% 30.32 in 10.0 mi Calm Calm - N/A   Clear
7:34 PM -13.0 °F -20.2 °F 70% 30.32 in 10.0 mi Calm Calm - N/A   Clear
7:54 PM -13.0 °F -20.2 °F 70% 30.32 in 10.0 mi Calm Calm - N/A   Clear
8:14 PM -14.8 °F -22.0 °F 70% 30.32 in 10.0 mi Calm Calm - N/A   Clear
8:34 PM -14.8 °F -22.0 °F 70% 30.32 in 10.0 mi Calm Calm - N/A   Clear
8:54 PM -14.8 °F -22.0 °F 70% 30.32 in 10.0 mi Calm Calm - N/A   Clear
9:14 PM -14.8 °F -23.8 °F 64% 30.32 in 10.0 mi Calm Calm - N/A   Clear
9:34 PM -14.8 °F -23.8 °F 64% 30.33 in 10.0 mi Calm Calm - N/A   Clear
9:54 PM -14.8 °F -23.8 °F 64% 30.33 in 10.0 mi Calm Calm - N/A   Clear
10:14 PM -14.8 °F -23.8 °F 64% 30.33 in 10.0 mi Calm Calm - N/A   Clear
10:34 PM -16.6 °F -23.8 °F 70% 30.33 in 10.0 mi Calm Calm - N/A   Clear
10:54 PM -16.6 °F -23.8 °F 70% 30.33 in 10.0 mi Calm Calm - N/A   Clear
11:14 PM -16.6 °F -23.8 °F 70% 30.32 in 10.0 mi Calm Calm - N/A   Clear
11:34 PM -16.6 °F -23.8 °F 70% 30.32 in 10.0 mi Calm Calm - N/A   Clear
11:54 PM -16.6 °F -23.8 °F 70% 30.32 in 10.0 mi Calm Calm - N/A   Clear